This is the latest recevied weather packets stored in our database for station/object K5UTC. If no packets are shown the sender has not sent any weather packets the latest 1 day(s).
| Time | Temp. | Humidity | Pressure | Rain* | Wind** | Luminosity | Snow |
|---|---|---|---|---|---|---|---|
| 1777996652 | 25.56° C | 49% | 1013 hPa | 0 mm | 1.34 m/s, 37° | 687 W/m² | - |
| 1777996348 | 25.56° C | 54% | 1013.3 hPa | 0 mm | 0.45 m/s, 80° | 707 W/m² | - |
| 1777996045 | 25.56° C | 58% | 1013 hPa | 0 mm | 0.45 m/s, 105° | 403 W/m² | - |
| 1777995741 | 25° C | 51% | 1013 hPa | 0 mm | 0 m/s | 459 W/m² | - |
| 1777995437 | 25° C | 52% | 1013.2 hPa | 0 mm | 0.89 m/s, 189° | 540 W/m² | - |
| 1777995135 | 25° C | 53% | 1012.9 hPa | 0 mm | 0.89 m/s, 165° | 705 W/m² | - |
| 1777994831 | 25° C | 53% | 1013.2 hPa | 0 mm | 0.45 m/s, 167° | 687 W/m² | - |
| 1777994528 | 25° C | 59% | 1013.2 hPa | 0 mm | 0.45 m/s, 145° | 638 W/m² | - |
| 1777994223 | 24.44° C | 54% | 1013.2 hPa | 0 mm | 0.45 m/s, 105° | 645 W/m² | - |
| 1777993921 | 24.44° C | 60% | 1013.3 hPa | 0 mm | 0.89 m/s, 186° | 627 W/m² | - |
| 1777993617 | 24.44° C | 58% | 1013 hPa | 0 mm | 0.45 m/s, 183° | 582 W/m² | - |
| 1777993315 | 23.89° C | 59% | 1013 hPa | 0 mm | 0.89 m/s, 187° | 520 W/m² | - |
| 1777993015 | 23.89° C | 63% | 1013.3 hPa | 0 mm | 0.45 m/s, 178° | 494 W/m² | - |
| 1777992714 | 23.33° C | 59% | 1013.4 hPa | 0 mm | 0.89 m/s, 223° | 438 W/m² | - |
| 1777992411 | 23.33° C | 60% | 1013.4 hPa | 0 mm | 0.45 m/s, 128° | 444 W/m² | - |
| 1777992109 | 23.33° C | 63% | 1013.3 hPa | 0 mm | 0.45 m/s, 215° | 420 W/m² | - |
| 1777991806 | 23.33° C | 62% | 1013.2 hPa | 0 mm | 0 m/s | 374 W/m² | - |
| 1777991503 | 23.33° C | 63% | 1013 hPa | 0 mm | 0 m/s | 394 W/m² | - |
| 1777991200 | 23.33° C | 60% | 1012.9 hPa | 0 mm | 0.45 m/s, 136° | 390 W/m² | - |
| 1777990897 | 23.33° C | 59% | 1013 hPa | 0 mm | 0.45 m/s, 148° | 345 W/m² | - |
| 1777990595 | 23.33° C | 59% | 1012.9 hPa | 0 mm | 0 m/s | 421 W/m² | - |
| 1777990291 | 22.78° C | 64% | 1013.2 hPa | 0 mm | 0.45 m/s, 149° | 362 W/m² | - |
| 1777989988 | 22.78° C | 59% | 1013.3 hPa | 0 mm | 0 m/s | 298 W/m² | - |
| 1777989685 | 22.22° C | 62% | 1013.2 hPa | 0 mm | 0.45 m/s, 164° | 382 W/m² | - |
| 1777989385 | 22.22° C | 61% | 1013 hPa | 0 mm | 0.45 m/s, 169° | 296 W/m² | - |
* Rain latest hour (hover to see other rain measurements)
** Current wind speed in m/s (hover to see current wind gust speed)